Total_Precipitation_Accumulation
1.42 1.44 1.40 1.43 1.53 1.51 1.44 1.45 1.50 1.50 1.49 1.57 1.70 1.83 1.90 1.94 1.95 1.97 1.92 1.88 1.89 1.85 1.79 1.74 1.69 1.67 1.70 1.66 1.65 1.70 1.77 1.85 1.79 1.30 1.05 1.04 1.15 1.19 1.21 1.13 1.06 1.07 1.09
1.29 1.38 1.32 1.30 1.44 1.48 1.40 1.34 1.37 1.39 1.30 1.31 1.39 1.47 1.55 1.61 1.64 1.69 1.71 1.71 1.71 1.71 1.69 1.68 1.63 1.60 1.60 1.60 1.65 1.66 1.68 1.70 1.73 1.52 1.20 1.09 1.09 1.10 1.12 1.11 1.06 1.01 0.97
1.20 1.25 1.22 1.19 1.26 1.31 1.35 1.33 1.30 1.35 1.31 1.23 1.20 1.24 1.29 1.34 1.39 1.41 1.44 1.47 1.48 1.49 1.54 1.57 1.56 1.61 1.65 1.60 1.58 1.55 1.50 1.50 1.54 1.52 1.30 1.09 1.03 1.01 1.08 1.09 1.03 0.99 0.92
1.09 1.10 1.07 1.08 1.09 1.10 1.14 1.18 1.17 1.17 1.22 1.25 1.15 1.08 1.11 1.16 1.22 1.29 1.31 1.34 1.36 1.40 1.43 1.46 1.49 1.52 1.53 1.54 1.58 1.55 1.50 1.48 1.46 1.48 1.39 1.23 1.13 1.09 1.15 1.18 1.16 1.07 1.01
1.04 1.07 1.06 1.02 0.98 0.98 1.00 0.98 0.99 1.02 1.08 1.15 1.15 1.08 1.04 1.06 1.12 1.18 1.22 1.26 1.28 1.32 1.35 1.36 1.41 1.54 1.60 1.57 1.55 1.53 1.57 1.66 1.65 1.64 1.53 1.33 1.17 1.10 1.11 1.07 1.13 1.12 1.11
0.93 1.00 1.02 1.00 0.96 0.94 0.91 0.91 0.88 0.92 0.99 1.08 1.13 1.14 1.12 1.14 1.36 1.35 1.26 1.25 1.28 1.28 1.28 1.25 1.27 1.35 1.37 1.44 1.48 1.47 1.56 1.71 1.82 1.80 1.61 1.32 1.06 0.95 0.93 1.02 1.16 1.25 1.21
0.75 0.84 0.89 0.90 0.92 0.91 0.90 0.93 0.98 1.00 1.04 1.12 1.19 1.23 1.23 1.30 1.44 1.36 1.35 1.22 1.20 1.21 1.20 1.17 1.15 1.14 1.19 1.09 1.19 1.27 1.31 1.45 1.54 1.48 1.38 1.15 0.99 0.94 1.06 1.19 1.18 1.19 1.05
0.78 0.81 0.81 0.85 0.90 0.93 0.99 1.06 1.15 1.21 1.23 1.29 1.37 1.39 1.39 1.40 1.42 1.35 1.36 1.18 1.09 1.05 1.00 0.94 0.93 0.91 0.93 1.01 1.07 1.16 1.08 1.06 1.08 1.06 1.04 0.98 0.96 1.00 1.18 1.36 1.39 1.38 1.17
0.82 0.87 0.89 0.95 1.04 1.08 1.17 1.24 1.26 1.35 1.34 1.31 1.31 1.31 1.29 1.26 1.27 1.22 1.21 1.06 1.00 0.93 0.85 0.79 0.80 0.78 0.93 1.10 1.11 1.15 1.00 0.90 0.97 1.07 1.14 1.16 1.25 1.29 1.32 1.53 1.70 1.78 1.56
0.92 1.01 1.03 1.05 1.11 1.14 1.16 1.14 1.12 1.13 1.11 1.07 1.03 1.01 0.99 0.96 1.00 1.00 1.03 0.98 0.93 0.84 0.77 0.74 0.82 0.81 0.97 1.10 1.04 1.07 1.03 0.87 0.87 0.95 1.01 1.06 1.05 1.13 1.27 1.27 1.46 1.79 1.65
1.03 1.08 1.06 1.02 1.04 1.02 0.97 0.91 0.85 0.82 0.78 0.75 0.74 0.72 0.70 0.70 0.74 0.79 0.88 0.92 0.97 0.92 0.82 0.74 0.73 0.90 1.00 1.08 1.05 0.97 1.01 1.04 1.03 1.05 1.03 1.01 1.02 1.06 1.09 1.07 1.16 1.57 1.83
0.93 0.91 0.86 0.76 0.73 0.70 0.69 0.70 0.69 0.66 0.67 0.66 0.64 0.62 0.58 0.56 0.61 0.66 0.75 0.87 0.95 0.96 0.89 0.77 0.77 0.95 0.99 0.99 0.98 1.01 1.11 1.12 1.04 1.12 1.17 1.12 1.04 0.99 0.96 0.97 1.02 1.12 1.29
0.65 0.65 0.63 0.59 0.57 0.57 0.59 0.62 0.64 0.64 0.65 0.64 0.62 0.64 0.63 0.57 0.59 0.68 0.73 0.83 0.91 0.90 0.86 0.89 0.93 0.97 0.94 0.89 0.93 1.02 1.03 0.98 1.01 1.09 1.09 1.03 0.97 0.95 0.98 1.05 1.10 1.14 1.17
0.53 0.56 0.57 0.58 0.55 0.55 0.57 0.58 0.64 0.68 0.69 0.68 0.66 0.67 0.65 0.62 0.61 0.67 0.76 0.83 0.90 0.92 0.91 0.90 0.88 0.87 0.89 0.88 0.88 0.89 0.90 0.96 1.07 1.10 1.05 1.01 1.01 1.08 1.14 1.16 1.23 1.24 1.34
0.54 0.57 0.61 0.63 0.60 0.59 0.59 0.62 0.67 0.71 0.80 0.88 0.86 0.80 0.81 0.77 0.72 0.86 0.96 0.96 0.99 1.02 1.06 0.98 0.88 0.84 0.86 0.86 0.83 0.83 0.88 0.98 1.08 1.08 1.12 1.15 1.15 1.16 1.16 1.16 1.27 1.33 1.38
0.56 0.57 0.60 0.64 0.65 0.64 0.61 0.60 0.66 0.70 0.75 0.78 0.81 0.83 0.80 0.82 0.85 0.91 0.93 0.96 1.03 1.11 1.16 1.02 0.87 0.83 0.84 0.84 0.84 0.86 0.89 0.95 1.03 1.13 1.21 1.26 1.29 1.27 1.23 1.17 1.24 1.36 1.36
0.62 0.62 0.63 0.65 0.67 0.69 0.66 0.64 0.66 0.69 0.73 0.73 0.73 0.76 0.79 0.84 0.87 0.87 0.91 0.96 1.03 1.11 1.10 0.92 0.80 0.77 0.78 0.82 0.87 0.91 0.92 0.91 1.02 1.19 1.31 1.36 1.40 1.38 1.34 1.31 1.27 1.30 1.27
0.58 0.62 0.65 0.65 0.69 0.74 0.75 0.72 0.69 0.69 0.69 0.67 0.69 0.76 0.80 0.83 0.86 0.87 0.93 0.98 1.00 0.98 0.91 0.86 0.83 0.82 0.86 0.90 0.93 0.97 0.99 1.02 1.08 1.16 1.26 1.36 1.48 1.54 1.47 1.37 1.32 1.32 1.33
0.58 0.63 0.65 0.67 0.70 0.75 0.80 0.82 0.78 0.73 0.71 0.68 0.65 0.71 0.81 0.87 0.90 0.91 0.92 0.90 0.87 0.84 0.81 0.82 0.85 0.91 0.95 0.99 1.01 1.04 1.10 1.13 1.14 1.21 1.24 1.31 1.45 1.61 1.53 1.37 1.37 1.37 1.44
0.57 0.70 0.75 0.74 0.75 0.77 0.78 0.80 0.81 0.78 0.76 0.71 0.70 0.75 0.84 0.93 0.89 0.85 0.86 0.84 0.81 0.78 0.78 0.85 0.90 0.99 1.07 1.12 1.14 1.15 1.17 1.14 1.17 1.25 1.26 1.28 1.36 1.52 1.56 1.46 1.45 1.48 1.41
0.55 0.63 0.71 0.70 0.70 0.75 0.79 0.81 0.84 0.84 0.80 0.74 0.73 0.81 1.01 1.05 0.94 0.84 0.85 0.89 0.92 0.90 0.89 0.92 0.94 1.01 1.09 1.16 1.19 1.19 1.17 1.12 1.13 1.26 1.33 1.34 1.39 1.45 1.42 1.48 1.49 1.50 1.51
0.53 0.57 0.62 0.66 0.69 0.76 0.83 0.84 0.83 0.84 0.81 0.76 0.73 0.77 0.90 0.89 0.83 0.81 0.83 0.88 0.91 0.94 0.98 1.06 1.04 0.99 1.10 1.25 1.34 1.37 1.24 1.10 1.07 1.22 1.34 1.34 1.39 1.44 1.49 1.55 1.54 1.53 1.52
0.51 0.55 0.58 0.61 0.66 0.74 0.77 0.74 0.76 0.79 0.79 0.78 0.76 0.77 0.78 0.79 0.77 0.76 0.79 0.83 0.87 0.90 0.92 1.01 1.06 0.99 0.97 1.12 1.30 1.55 1.59 1.33 1.21 1.38 1.66 1.65 1.55 1.55 1.60 1.58 1.48 1.47 1.40
0.51 0.54 0.57 0.60 0.64 0.69 0.71 0.71 0.71 0.73 0.74 0.75 0.75 0.77 0.78 0.79 0.78 0.77 0.79 0.82 0.85 0.86 0.88 0.96 1.00 0.99 0.99 1.09 1.18 1.28 1.41 1.55 1.83 2.03 2.12 2.16 1.86 1.60 1.56 1.52 1.41 1.37 1.36
0.50 0.53 0.58 0.63 0.66 0.68 0.69 0.69 0.68 0.68 0.69 0.70 0.72 0.74 0.74 0.75 0.75 0.75 0.77 0.79 0.81 0.82 0.82 0.86 0.94 0.97 0.97 1.00 1.07 1.12 1.23 1.50 1.89 2.17 2.18 2.07 1.81 1.58 1.54 1.49 1.40 1.38 1.36
0.54 0.56 0.59 0.64 0.67 0.68 0.69 0.67 0.65 0.65 0.68 0.67 0.68 0.69 0.71 0.72 0.71 0.71 0.73 0.75 0.77 0.77 0.75 0.77 0.82 0.90 0.93 0.93 0.91 1.01 1.21 1.35 1.42 1.54 1.88 2.04 1.84 1.57 1.52 1.57 1.44 1.39 1.36